Bedford, MA

1:47 AM EDT on March 27, 2017 (GMT -0400)
Hanscom

Weather History for KBED - February, 2011

Change the Weather History Date:

Saturday, February 12, 2011

  Actual Average Record
Temperature  
Mean Temperature 19 °F -  
Max Temperature 37 °F 36 °F 59 °F (1981)
Min Temperature 1 °F 14 °F -11 °F (1962)
Degree Days  
Heating Degree Days 46    
Moisture  
Dew Point 11 °F    
Average Humidity 63    
Maximum Humidity 88    
Minimum Humidity 43    
Precipitation  
Precipitation 0.00 in - - ()
Sea Level Pressure  
Sea Level Pressure 29.88 in    
Wind  
Wind Speed 5 mph (WSW)    
Max Wind Speed 20 mph    
Max Gust Speed 34 mph    
Visibility 10 miles    
Events      
Averages and records for this station are not official NWS values.
T = Trace of Precipitation, MM = Missing Value Source: NWS Daily Summary

Daily Weather History Graph

Daily Weather History Graph

Search for Another Location

Airport or City:

Trip Planner

Search our weather history database for the weather conditions in past years. The results will help you decide how hot, cold, wet, or windy it might be!

Date:

Astronomy

Feb. 12, 2011 Rise Set
Actual Time 6:46 AM EST 5:13 PM EST
Civil Twilight 6:17 AM EST 5:42 PM EST
Nautical Twilight 5:44 AM EST 6:15 PM EST
Astronomical Twilight 5:11 AM EST 6:47 PM EST
Moon 11:11 AM EST (2/12) 1:58 AM EST (2/12)
Length of Visible Light 11h 24m
Length of Day
10h 26m
Waxing Gibbous, 64% of the Moon is Illuminated
Feb 12
Waxing Gibbous
Feb 18
Full
Feb 24
Last Quarter
Mar 4
New
Mar 12
First Quarter

Hourly Weather History & Observations

Time (EST) Temp. Windchill Dew Point Humidity Pressure Visibility Wind Dir Wind Speed Gust Speed Precip Events Conditions
12:56 AM 5.0 °F - -0.0 °F 80% 30.07 in 10.0 mi Calm Calm - N/A   Clear
1:56 AM 6.1 °F - 1.9 °F 83% 30.04 in 10.0 mi Calm Calm - N/A   Partly Cloudy
2:56 AM 5.0 °F - 1.9 °F 87% 30.01 in 10.0 mi Calm Calm - N/A   Clear
3:56 AM 1.9 °F - -0.9 °F 88% 29.99 in 10.0 mi Calm Calm - N/A   Clear
4:56 AM 3.9 °F - -0.0 °F 84% 29.98 in 10.0 mi Calm Calm - N/A   Clear
5:56 AM 5.0 °F - 1.9 °F 87% 29.96 in 10.0 mi Calm Calm - N/A   Partly Cloudy
6:56 AM 6.1 °F - 1.9 °F 83% 29.94 in 7.0 mi Calm Calm - N/A   Mostly Cloudy
7:56 AM 8.1 °F - 5.0 °F 87% 29.91 in 7.0 mi Calm Calm - N/A   Mostly Cloudy
8:56 AM 18.0 °F - 12.9 °F 81% 29.87 in 10.0 mi Calm Calm - N/A   Mostly Cloudy
9:56 AM 28.4 °F 18.5 °F 19.4 °F 69% 29.79 in 10.0 mi SSW 11.5 mph - N/A   Mostly Cloudy
10:56 AM 32.0 °F 22.5 °F 19.9 °F 61% 29.81 in 10.0 mi SSW 12.7 mph 19.6 mph N/A   Overcast
11:56 AM 36.0 °F 27.1 °F 16.0 °F 44% 29.77 in 10.0 mi WSW 13.8 mph 26.5 mph N/A   Overcast
12:56 PM 37.0 °F 28.1 °F 18.0 °F 46% 29.73 in 10.0 mi SW 15.0 mph 27.6 mph N/A   Mostly Cloudy
1:56 PM 36.0 °F 26.3 °F 18.0 °F 48% 29.72 in 10.0 mi SW 16.1 mph 23.0 mph N/A   Overcast
2:54 PM 35.6 °F 26.2 °F 17.6 °F 48% 29.68 in 10.0 mi West 15.0 mph 24.2 mph N/A   Mostly Cloudy
2:56 PM 35.1 °F 25.2 °F 17.1 °F 48% 29.73 in 10.0 mi West 16.1 mph 24.2 mph N/A   Mostly Cloudy
3:56 PM 34.0 °F 26.6 °F 19.9 °F 56% 29.75 in 10.0 mi WSW 9.2 mph - N/A   Mostly Cloudy
4:56 PM 34.0 °F 25.5 °F 17.1 °F 50% 29.77 in 10.0 mi West 11.5 mph 26.5 mph N/A   Scattered Clouds
5:56 PM 33.1 °F 25.5 °F 17.1 °F 52% 29.81 in 10.0 mi West 9.2 mph 19.6 mph N/A   Scattered Clouds
6:56 PM 30.9 °F 23.5 °F 18.0 °F 59% 29.85 in 10.0 mi WSW 8.1 mph - N/A   Scattered Clouds
7:56 PM 30.9 °F 19.8 °F 15.1 °F 52% 29.87 in 10.0 mi West 16.1 mph 26.5 mph N/A   Scattered Clouds
8:56 PM 30.0 °F 17.5 °F 10.0 °F 43% 29.92 in 10.0 mi WNW 19.6 mph 34.5 mph N/A   Scattered Clouds
9:56 PM 28.0 °F 17.0 °F 9.0 °F 45% 29.95 in 10.0 mi West 13.8 mph 23.0 mph N/A   Clear
10:56 PM 27.0 °F 16.7 °F 9.0 °F 47% 29.98 in 10.0 mi West 11.5 mph - N/A   Clear
11:56 PM 26.1 °F 16.2 °F 8.1 °F 47% 30.01 in 10.0 mi West 10.4 mph 19.6 mph N/A   Clear